7 * 24
多渠道服务支持
TIANMU-1 11 是一颗由中国研制的遥感卫星,主要用于地球观测和空间科学实验。该卫星具备高分辨率成像能力,可应用于环境监测、资源调查、灾害预警等领域。它搭载了先进的光学传感器和数据传输系统,能够实现对地表的高精度观测。TIANMU-1 11 的成功发射,进一步提升了我国在遥感技术和空间应用方面的能力,为相关科学研究和实际应用提供了有力支持。
中国
(CN)
| 数据来源 | 国际轨道数据 |
| 星历时间: | 2025-10-28T23:29:28+0800 16小时前 查看轨道信息 |
| 半长轴: | 6872.502km |
| 偏心率: | 0.0011409 |
| 轨道倾角: | 97.366° |
| 近地点辐角 | 100.094° |
| 升交点赤经 | 322.076° |
| 平近点角 | 260.158° |
| 近地点: | 486.526km |
| 远地点: | 502.208km |
| 周期: | 94.500分钟 |
| 每日圈数: | 15.238089 |